ETD1345 LFBO-LFML

Flight info

Callsign ETD1345
Flight time N/A
Altitude 36000
Route MEN7B/32R MEN DCT NINUN DCT LATAM DCT ROMAM/N0449F370 DCT ETIDO/N0416F270 DCT NEDRU DCT RILIP DCT EMMEF/N0404F250 DCT LAPRI DCT KUMIN/N0397F240 DCT MOGBO/N0404F250 DCT TOP/N0370F190 M135 DIXER
Aircraft A321/M-SDE3FGHIRWY/LB1

Departure

Time N/A
Airport Toulouse-Blagnac Airport (LFBO)

Arrival

Time 2026-05-04 22:20
Airport Marseille Provence Airport (LFML)
Time Latitude Longitude Altitude Speed Heading
2026-05-04 21:51 44.64503 3.38747 18534 ft 322 kts 134°
2026-05-04 21:52 44.63006 3.41092 18424 ft 323 kts 134°
2026-05-04 21:52 44.61501 3.43448 18349 ft 324 kts 134°
2026-05-04 21:52 44.59997 3.45802 18290 ft 324 kts 134°
2026-05-04 21:52 44.58497 3.48150 18220 ft 323 kts 134°
2026-05-04 21:53 44.56997 3.50497 18153 ft 323 kts 134°
2026-05-04 21:53 44.55502 3.52836 18059 ft 319 kts 134°
2026-05-04 21:53 44.54051 3.55107 17296 ft 309 kts 134°
2026-05-04 21:53 44.52629 3.57334 16167 ft 304 kts 135°
2026-05-04 21:54 44.51229 3.59519 15054 ft 299 kts 135°
2026-05-04 21:54 44.49849 3.61669 14028 ft 294 kts 135°
2026-05-04 21:54 44.48507 3.63757 13097 ft 290 kts 135°
2026-05-04 21:54 44.47167 3.65844 12476 ft 288 kts 135°
2026-05-04 21:55 44.45832 3.67921 12181 ft 287 kts 135°
2026-05-04 21:55 44.44491 3.70006 12055 ft 288 kts 135°
2026-05-04 21:55 44.43150 3.72090 11995 ft 288 kts 136°
2026-05-04 21:55 44.41815 3.74161 11988 ft 287 kts 135°
2026-05-04 21:56 44.40474 3.76240 11981 ft 287 kts 135°
2026-05-04 21:56 44.39139 3.78308 11983 ft 287 kts 136°
2026-05-04 21:56 44.37818 3.80355 11980 ft 287 kts 136°
2026-05-04 21:56 44.36502 3.82389 11981 ft 287 kts 136°
2026-05-04 21:57 44.35175 3.84444 11782 ft 280 kts 136°
2026-05-04 21:57 44.33888 3.86435 10928 ft 273 kts 136°
2026-05-04 21:57 44.32616 3.88396 10079 ft 272 kts 135°
2026-05-04 21:57 44.31347 3.90350 9473 ft 271 kts 135°
2026-05-04 21:58 44.30080 3.92300 9193 ft 270 kts 135°
2026-05-04 21:58 44.28821 3.94238 9065 ft 269 kts 135°
2026-05-04 21:58 44.27576 3.96152 9029 ft 270 kts 135°
2026-05-04 21:58 44.26316 3.98092 9005 ft 271 kts 135°
2026-05-04 21:59 44.25054 4.00033 8990 ft 271 kts 135°
2026-05-04 21:59 44.23784 4.01985 9021 ft 271 kts 136°
2026-05-04 21:59 44.22512 4.03935 9015 ft 272 kts 136°
2026-05-04 21:59 44.21241 4.05885 8991 ft 272 kts 135°
2026-05-04 22:00 44.19974 4.07837 8989 ft 270 kts 135°
2026-05-04 22:00 44.18729 4.09749 8987 ft 270 kts 136°
2026-05-04 22:00 44.17398 4.11779 8988 ft 292 kts 135°
2026-05-04 22:00 44.16031 4.13875 8986 ft 293 kts 135°
2026-05-04 22:01 44.14685 4.15942 8868 ft 290 kts 136°
2026-05-04 22:01 44.13331 4.18016 8456 ft 289 kts 135°
2026-05-04 22:01 44.11979 4.20080 7972 ft 288 kts 135°
2026-05-04 22:01 44.10649 4.22111 7569 ft 286 kts 136°
2026-05-04 22:02 44.09314 4.24151 7113 ft 284 kts 136°
2026-05-04 22:02 44.07990 4.26168 6724 ft 281 kts 136°
2026-05-04 22:02 44.06693 4.28145 6489 ft 272 kts 136°
2026-05-04 22:02 44.05420 4.30083 6315 ft 271 kts 136°
2026-05-04 22:03 44.04152 4.32008 6147 ft 269 kts 136°
2026-05-04 22:03 44.02921 4.33875 5985 ft 261 kts 136°
2026-05-04 22:03 44.01708 4.35716 5822 ft 257 kts 136°
2026-05-04 22:03 44.00511 4.37534 5687 ft 254 kts 136°
2026-05-04 22:04 43.99318 4.39344 5577 ft 253 kts 136°
2026-05-04 22:04 43.98126 4.41151 5544 ft 254 kts 136°
2026-05-04 22:04 43.96929 4.42964 5531 ft 255 kts 136°
2026-05-04 22:04 43.95731 4.44777 5523 ft 254 kts 136°
2026-05-04 22:05 43.94534 4.46589 5522 ft 255 kts 136°
2026-05-04 22:05 43.93349 4.48379 5509 ft 255 kts 136°
2026-05-04 22:05 43.92148 4.50192 5506 ft 255 kts 136°
2026-05-04 22:05 43.90943 4.52009 5514 ft 256 kts 136°
2026-05-04 22:06 43.89739 4.53827 5508 ft 256 kts 136°
2026-05-04 22:06 43.88531 4.55651 5509 ft 256 kts 136°
2026-05-04 22:06 43.87327 4.57465 5506 ft 257 kts 136°
2026-05-04 22:06 43.86149 4.59242 5502 ft 250 kts 136°
2026-05-04 22:07 43.85000 4.60977 5482 ft 238 kts 136°
2026-05-04 22:07 43.83887 4.62649 5473 ft 235 kts 136°
2026-05-04 22:07 43.82779 4.64313 5423 ft 235 kts 136°
2026-05-04 22:07 43.81679 4.65969 5350 ft 234 kts 136°
2026-05-04 22:08 43.80592 4.67600 5259 ft 233 kts 136°
2026-05-04 22:08 43.79506 4.69230 5157 ft 226 kts 136°
2026-05-04 22:08 43.78457 4.70805 5029 ft 218 kts 136°
2026-05-04 22:08 43.77448 4.72320 4900 ft 211 kts 136°
2026-05-04 22:09 43.76468 4.73787 4760 ft 208 kts 136°
2026-05-04 22:09 43.75470 4.75278 4645 ft 212 kts 136°
2026-05-04 22:09 43.74472 4.76772 4521 ft 211 kts 136°
2026-05-04 22:09 43.73482 4.78253 4389 ft 209 kts 136°
2026-05-04 22:10 43.72511 4.79707 4265 ft 208 kts 136°
2026-05-04 22:10 43.71533 4.81171 4138 ft 205 kts 136°
2026-05-04 22:10 43.70556 4.82627 3994 ft 208 kts 136°
2026-05-04 22:10 43.69574 4.84092 3963 ft 207 kts 135°
2026-05-04 22:11 43.68893 4.85107 3967 ft 207 kts 135°
2026-05-04 22:11 43.67917 4.86564 3978 ft 206 kts 135°
2026-05-04 22:11 43.66943 4.88016 3985 ft 206 kts 136°
2026-05-04 22:11 43.65984 4.89468 3988 ft 207 kts 134°
2026-05-04 22:12 43.65025 4.90909 3992 ft 206 kts 136°
2026-05-04 22:12 43.64034 4.92345 3995 ft 207 kts 136°
2026-05-04 22:12 43.63042 4.93773 3992 ft 203 kts 136°
2026-05-04 22:12 43.62098 4.95130 3979 ft 188 kts 137°
2026-05-04 22:13 43.61201 4.96416 3980 ft 185 kts 137°
2026-05-04 22:13 43.60350 4.97639 4012 ft 164 kts 137°
2026-05-04 22:13 43.59617 4.98691 3981 ft 141 kts 137°
2026-05-04 22:13 43.58967 4.99622 3908 ft 136 kts 138°
2026-05-04 22:14 43.58339 5.00523 3799 ft 124 kts 137°
2026-05-04 22:14 43.57757 5.01357 3648 ft 122 kts 137°
2026-05-04 22:14 43.57172 5.02195 3500 ft 121 kts 137°
2026-05-04 22:14 43.56593 5.03024 3349 ft 120 kts 136°
2026-05-04 22:15 43.56021 5.03844 3197 ft 118 kts 136°
2026-05-04 22:15 43.55453 5.04658 3037 ft 117 kts 136°
2026-05-04 22:15 43.54893 5.05460 2883 ft 115 kts 135°
2026-05-04 22:15 43.54339 5.06254 2723 ft 115 kts 135°
2026-05-04 22:16 43.53786 5.07046 2565 ft 115 kts 135°
2026-05-04 22:16 43.53232 5.07840 2423 ft 114 kts 134°
2026-05-04 22:16 43.52683 5.08626 2274 ft 114 kts 134°
2026-05-04 22:16 43.52142 5.09399 2115 ft 115 kts 134°
2026-05-04 22:17 43.51589 5.10191 1958 ft 115 kts 133°
2026-05-04 22:17 43.51034 5.10985 1800 ft 115 kts 133°
2026-05-04 22:17 43.50477 5.11780 1651 ft 115 kts 132°
2026-05-04 22:17 43.49921 5.12576 1481 ft 116 kts 132°
2026-05-04 22:18 43.49355 5.13385 1324 ft 118 kts 131°
2026-05-04 22:18 43.48779 5.14208 1168 ft 123 kts 131°
2026-05-04 22:18 43.48179 5.15064 1010 ft 122 kts 130°
2026-05-04 22:18 43.47593 5.15903 863 ft 124 kts 131°
2026-05-04 22:19 43.46989 5.16766 692 ft 125 kts 131°
2026-05-04 22:19 43.46380 5.17636 539 ft 126 kts 131°
2026-05-04 22:19 43.45774 5.18500 337 ft 125 kts 131°
2026-05-04 22:19 43.45181 5.19354 125 ft 122 kts 131°
2026-05-04 22:20 43.44595 5.20186 46 ft 114 kts 131°
2026-05-04 22:20 43.44156 5.20816 40 ft 63 kts 135°
2026-05-04 22:20 43.43925 5.21147 41 ft 44 kts 134°
2026-05-04 22:20 43.43719 5.21439 42 ft 41 kts 133°
2026-05-04 22:21 43.43527 5.21721 40 ft 40 kts 136°
2026-05-04 22:21 43.43376 5.21926 40 ft 18 kts 130°
2026-05-04 22:21 43.43335 5.22105 42 ft 22 kts 90°
2026-05-04 22:21 43.43343 5.22233 41 ft 13 kts 61°
2026-05-04 22:22 43.43421 5.22277 43 ft 10 kts 339°
2026-05-04 22:22 43.43457 5.22254 43 ft 0 kts 333°
2026-05-04 22:22 43.43470 5.22244 43 ft 6 kts 331°
2026-05-04 22:23 43.43527 5.22200 43 ft 13 kts 330°
2026-05-04 22:23 43.43602 5.22140 43 ft 8 kts 329°
2026-05-04 22:23 43.43663 5.22090 43 ft 13 kts 329°
2026-05-04 22:23 43.43731 5.22034 43 ft 7 kts 330°
2026-05-04 22:24 43.43792 5.22041 42 ft 13 kts 43°
2026-05-04 22:24 43.43832 5.22097 43 ft 8 kts 44°
2026-05-04 22:24 43.43862 5.22137 43 ft 5 kts 44°
2026-05-04 22:24 43.43895 5.22155 43 ft 6 kts 352°
2026-05-04 22:25 43.43939 5.22111 43 ft 9 kts 315°
2026-05-04 22:25 43.43979 5.22054 43 ft 4 kts 314°
2026-05-04 22:25 43.43996 5.22039 43 ft 4 kts 358°
2026-05-04 22:25 43.44028 5.22069 43 ft 6 kts 40°
2026-05-04 22:26 43.44040 5.22082 43 ft 2 kts 39°
2026-05-04 22:26 43.44052 5.22096 43 ft 1 kts 39°
2026-05-04 22:26 43.44053 5.22097 43 ft 0 kts 39°
2026-05-04 22:26 43.44055 5.22099 43 ft 0 kts 38°